Volver al catálogo

STARLINK-1039

ActivoComunicacionesVLEO
NORAD 44744·PAYLOAD·🇺🇸 United States

Lanzado Nov 11, 2019 desde Cape Canaveral Space Force Station

Loading…

Próximos Pases (próximas 24 horas)

TLE

ActualizadoSource: CelesTrak SupGP

Época: Sep 14, 2026, 20:11 UTC

1 44744C 19074AH  26257.84145833  .00071861  00000+0  20814-2 0  2578
2 44744  53.0560  56.3354 0001841  70.6433 100.0188 15.34974376    15

Sigue STARLINK-1039 en tiempo real con AllMySat

Download on the App Store